Weather History for KBKD - October, 2013

Change the Weather History Date:

Sunday, October 20, 2013

  Actual Average (KABI) Record (KABI)
Temperature  
Mean Temperature 60 °F 65 °F  
Max Temperature 76 °F 76 °F 93 °F (1979)
Min Temperature 45 °F 53 °F 29 °F (1976)
Degree Days  
Heating Degree Days 4 3  
Month to date heating degree days 42  
Since 1 July heating degree days 53  
Cooling Degree Days 0 3  
Month to date cooling degree days 92  
Year to date cooling degree days 2363  
Growing Degree Days 10 (Base 50)    
Moisture  
Dew Point 45 °F    
Average Humidity 58    
Maximum Humidity 78    
Minimum Humidity 39    
Precipitation  
Precipitation 0.00 in 0.10 in 1.73 in (1983)
Month to date precipitation 1.98  
Year to date precipitation 21.18  
Sea Level Pressure  
Sea Level Pressure 29.94 in    
Wind  
Wind Speed 10 mph (South)    
Max Wind Speed 21 mph    
Max Gust Speed 25 mph    
Visibility 10 miles    
Events      
T = Trace of Precipitation, MM = Missing Value Source: NWS Daily Summary

Daily Weather History Graph

Daily Weather History Graph

Search for Another Location

Airport or City:

Trip Planner

Search our weather history database for the weather conditions in past years. The results will help you decide how hot, cold, wet, or windy it might be!

Date:

Astronomy

Oct. 20, 2013 Rise Set
Actual Time 7:43 AM CDT 6:56 PM CDT
Civil Twilight 7:18 AM CDT 7:21 PM CDT
Nautical Twilight 6:49 AM CDT 7:50 PM CDT
Astronomical Twilight 6:21 AM CDT 8:18 PM CDT
Moon 8:12 PM CDT (10/20) 9:17 AM CDT (10/20)
Length of Visible Light 12h 02m
Length of Day
11h 12m
Full, 97% of the Moon is Illuminated
Oct 20
Full
Oct 26
Last Quarter
Nov 3
New
Nov 9
First Quarter
Nov 17
Full

Hourly Weather History & Observations

Time (CDT) Temp. Windchill Dew Point Humidity Pressure Visibility Wind Dir Wind Speed Gust Speed Precip Events Conditions
12:15 AM 49.1 °F - 39.2 °F 69% 30.08 in 10.0 mi SSE 8.1 mph - N/A   Clear
12:35 AM 48.6 °F - 39.2 °F 70% 30.08 in 10.0 mi SSE 5.8 mph - N/A   Clear
12:55 AM 47.1 °F - 38.8 °F 73% 30.07 in 10.0 mi SSE 4.6 mph - N/A   Clear
1:15 AM 47.7 °F - 38.8 °F 71% 30.06 in 10.0 mi South 5.8 mph - N/A   Clear
1:35 AM 49.8 °F - 38.5 °F 65% 30.05 in 10.0 mi South 5.8 mph - N/A   Clear
1:55 AM 48.4 °F - 38.7 °F 69% 30.05 in 10.0 mi SSE 3.5 mph - N/A   Clear
2:15 AM 47.8 °F - 38.5 °F 70% 30.04 in 10.0 mi South 5.8 mph - N/A   Clear
2:35 AM 47.1 °F - 38.5 °F 72% 30.04 in 10.0 mi SSE 4.6 mph - N/A   Clear
2:55 AM 46.6 °F - 38.7 °F 74% 30.03 in 10.0 mi South 8.1 mph - N/A   Clear
3:15 AM 46.4 °F 41.9 °F 38.7 °F 74% 30.03 in 10.0 mi SSE 9.2 mph - N/A   Clear
3:35 AM 46.0 °F 42.5 °F 38.7 °F 75% 30.03 in 10.0 mi SSE 6.9 mph - N/A   Clear
3:55 AM 45.7 °F 41.5 °F 38.8 °F 77% 30.02 in 10.0 mi South 8.1 mph - N/A   Clear
4:15 AM 46.4 °F 42.9 °F 38.7 °F 74% 30.01 in 10.0 mi South 6.9 mph - N/A   Clear
4:35 AM 46.0 °F 43.1 °F 38.7 °F 75% 30.01 in 10.0 mi South 5.8 mph - N/A   Clear
4:55 AM 46.2 °F 44.1 °F 38.5 °F 74% 30.01 in 10.0 mi South 4.6 mph - N/A   Clear
5:15 AM 45.9 °F 42.3 °F 38.5 °F 75% 30.01 in 10.0 mi South 6.9 mph - N/A   Clear
5:35 AM 45.1 °F 40.8 °F 38.7 °F 78% 30.01 in 10.0 mi SSE 8.1 mph - N/A   Clear
5:55 AM 45.5 °F 41.3 °F 38.3 °F 76% 30.00 in 10.0 mi SSE 8.1 mph - N/A   Clear
6:15 AM 46.0 °F 41.9 °F 38.5 °F 75% 29.99 in 10.0 mi SSE 8.1 mph - N/A   Clear
6:35 AM 47.5 °F - 38.5 °F 71% 30.00 in 10.0 mi SSE 6.9 mph - N/A   Clear
6:55 AM 47.5 °F - 38.7 °F 71% 30.00 in 10.0 mi SSE 5.8 mph - N/A   Clear
7:15 AM 46.8 °F - 39.0 °F 74% 29.99 in 10.0 mi SSE 6.9 mph - N/A   Clear
7:35 AM 48.0 °F - 39.4 °F 72% 29.99 in 10.0 mi SSE 8.1 mph - N/A   Clear
7:55 AM 49.3 °F - 38.8 °F 67% 29.99 in 10.0 mi SSE 10.4 mph - N/A   Clear
8:15 AM 50.5 °F - 39.2 °F 65% 29.99 in 10.0 mi SSE 12.7 mph - N/A   Clear
8:35 AM 52.2 °F - 39.6 °F 62% 29.99 in 10.0 mi SSE 11.5 mph - N/A   Clear
8:55 AM 53.8 °F - 39.4 °F 58% 30.00 in 10.0 mi SSE 15.0 mph 21.9 mph N/A   Clear
9:15 AM 54.7 °F - 39.6 °F 57% 30.01 in 10.0 mi SSE 11.5 mph 19.6 mph N/A   Clear
9:35 AM 56.5 °F - 40.1 °F 54% 30.01 in 10.0 mi SSE 12.7 mph 16.1 mph N/A   Clear
9:55 AM 57.9 °F - 40.3 °F 52% 30.01 in 7.0 mi South 9.2 mph 18.4 mph N/A   Clear
10:15 AM 60.1 °F - 41.0 °F 49% 30.00 in 7.0 mi South 11.5 mph 18.4 mph N/A   Clear
10:35 AM 60.6 °F - 41.5 °F 49% 29.99 in 10.0 mi North - - N/A   Clear
10:55 AM 62.4 °F - 42.4 °F 48% 29.98 in 10.0 mi South 13.8 mph 20.7 mph N/A   Clear
11:15 AM 64.0 °F - 43.3 °F 47% 29.98 in 10.0 mi South 16.1 mph - N/A   Clear
11:35 AM 65.8 °F - 44.8 °F 47% 29.97 in 10.0 mi South 17.3 mph 20.7 mph N/A   Clear
11:55 AM 68.2 °F - 46.0 °F 45% 29.96 in 10.0 mi South 20.7 mph 24.2 mph N/A   Clear
12:15 PM 69.8 °F - 46.9 °F 44% 29.95 in 10.0 mi South 16.1 mph 25.3 mph N/A   Clear
12:35 PM 70.0 °F - 46.8 °F 43% 29.94 in 10.0 mi South 15.0 mph 21.9 mph N/A   Clear
12:55 PM 71.6 °F - 47.5 °F 42% 29.93 in 10.0 mi South 18.4 mph 21.9 mph N/A   Clear
1:15 PM 72.1 °F - 48.2 °F 43% 29.92 in 10.0 mi South 15.0 mph 23.0 mph N/A   Clear
1:35 PM 72.9 °F - 48.6 °F 42% 29.91 in 10.0 mi South 12.7 mph 23.0 mph N/A   Clear
1:55 PM 73.4 °F - 48.7 °F 42% 29.90 in 10.0 mi South 15.0 mph 21.9 mph N/A   Clear
2:15 PM 74.5 °F - 49.5 °F 41% 29.88 in 10.0 mi SSW 12.7 mph 25.3 mph N/A   Clear
2:35 PM 74.8 °F - 49.6 °F 41% 29.88 in 7.0 mi SSW 16.1 mph 19.6 mph N/A   Clear
2:55 PM 75.2 °F - 49.6 °F 41% 29.86 in 10.0 mi South 17.3 mph 21.9 mph N/A   Clear
3:15 PM 75.6 °F - 49.5 °F 40% 29.85 in 10.0 mi South 17.3 mph 23.0 mph N/A   Clear
3:35 PM 75.7 °F - 49.8 °F 40% 29.85 in 10.0 mi South 15.0 mph 24.2 mph N/A   Clear
3:55 PM 76.5 °F - 50.2 °F 40% 29.84 in 10.0 mi South 16.1 mph 21.9 mph N/A   Clear
4:15 PM 76.5 °F - 50.0 °F 39% 29.84 in 10.0 mi North - - N/A   Clear
4:35 PM 76.5 °F - 50.2 °F 40% 29.83 in 10.0 mi South 17.3 mph 25.3 mph N/A   Clear
4:55 PM 76.6 °F - 50.5 °F 40% 29.83 in 10.0 mi South 13.8 mph 20.7 mph N/A   Clear
5:15 PM 76.3 °F - 50.9 °F 41% 29.83 in 10.0 mi South 12.7 mph 23.0 mph N/A   Clear
5:35 PM 76.1 °F - 51.4 °F 42% 29.82 in 10.0 mi South 13.8 mph 19.6 mph N/A   Clear
5:55 PM 75.2 °F - 51.8 °F 44% 29.82 in 10.0 mi South 17.3 mph 20.7 mph N/A   Clear
6:15 PM 74.3 °F - 51.6 °F 45% 29.82 in 10.0 mi South 12.7 mph 23.0 mph N/A   Clear
6:35 PM 73.4 °F - 51.4 °F 46% 29.82 in 10.0 mi South 13.8 mph 19.6 mph N/A   Clear
6:55 PM 72.3 °F - 51.8 °F 48% 29.82 in 10.0 mi South 11.5 mph 18.4 mph N/A   Clear
7:15 PM 71.2 °F - 52.0 °F 51% 29.82 in 10.0 mi South 9.2 mph 17.3 mph N/A   Clear
7:35 PM 70.2 °F - 52.5 °F 53% 29.83 in 10.0 mi SSE 9.2 mph - N/A   Clear
7:55 PM 69.3 °F - 52.7 °F 56% 29.84 in 10.0 mi SSE 9.2 mph - N/A   Clear
8:15 PM 68.4 °F - 52.7 °F 57% 29.84 in 10.0 mi SSE 9.2 mph - N/A   Clear
8:35 PM 67.3 °F - 52.7 °F 59% 29.85 in 10.0 mi SSE 10.4 mph - N/A   Clear
8:55 PM 67.1 °F - 52.2 °F 59% 29.85 in 10.0 mi SSE 10.4 mph - N/A   Clear
9:15 PM 66.4 °F - 51.8 °F 59% 29.85 in 10.0 mi SSE 10.4 mph - N/A   Clear
9:35 PM 66.2 °F - 51.1 °F 58% 29.85 in 10.0 mi SSE 11.5 mph - N/A   Clear
9:55 PM 65.5 °F - 50.9 °F 59% 29.85 in 10.0 mi SSE 11.5 mph 16.1 mph N/A   Clear
10:15 PM 64.9 °F - 51.1 °F 61% 29.86 in 10.0 mi SSE 10.4 mph - N/A   Clear
10:35 PM 65.3 °F - 51.1 °F 60% 29.86 in 10.0 mi South 10.4 mph 16.1 mph N/A   Clear
10:55 PM 65.3 °F - 51.4 °F 61% 29.87 in 10.0 mi South 12.7 mph 19.6 mph N/A   Clear
11:15 PM 64.8 °F - 51.8 °F 63% 29.87 in 10.0 mi South 10.4 mph 17.3 mph N/A   Clear
11:35 PM 64.2 °F - 52.0 °F 64% 29.87 in 10.0 mi South 13.8 mph 20.7 mph N/A   Clear
11:55 PM 63.7 °F - 52.7 °F 67% 29.87 in 10.0 mi South 12.7 mph 19.6 mph N/A   Clear